Tracking 31027 objects as of 19-Jul-2025
HD Live streaming from Space Station
objects crossing your sky now

SITRO-AIS-28

Track SITRO-AIS-28 now!
10-day predictions
SITRO-AIS-28 is classified as:


NORAD ID: 59071
Int'l Code: 2024-039U
Perigee: 497.3 km
Apogee: 714.9 km
Inclination: 95.4 °
Period: 96.7 minutes
Semi major axis: 6977 km
RCS: Unknown
Launch date: February 29, 2024
Source: (TBD)
Launch site: VOSTOCHNY COSMODROME (VOSTO)

Uplink (MHz):
Downlink (MHz): 401.350
Beacon (MHz):
Mode: 2k4 GMSK_USP
Call sign:
Status: Unknown

Your satellite tracking list
SKOLTECH-B2
Track 1 satellite(s)




NASA's NSSDC Master Catalog

Two Line Element Set (TLE):
1 59071U 24039U   25199.83308089  .00003063  00000-0  25714-3 0  9999
2 59071  95.3782   6.8411 0155881  50.5740 310.9162 14.89672203 75047
Source of the keplerian elements: AFSPC